| time (UTC) | temp F | wind direction | speed MPH | gust MPH | rain 1hr in | rain 24hr in | rain mn in | humidity % | barometer mb |
| 20260502123037 | 34 | 355 | 2.0 | 0.0 | 0.00 | 0.00 | 0.23 | 95 | 1016.3 |
| 20260502121528 | 34 | 313 | 2.0 | 0.0 | 0.00 | 0.00 | 0.21 | 95 | 1016.1 |
| 20260502114606 | 33 | 277 | 1.0 | 0.0 | 0.00 | 0.00 | 0.17 | 95 | 1016.1 |
| 20260502113049 | 33 | 242 | 0.0 | 0.0 | 0.00 | 0.00 | 0.16 | 96 | 1016.4 |
| 20260502111531 | 32 | 242 | 0.0 | 0.0 | 0.00 | 0.00 | 0.14 | 96 | 1016.2 |
| 20260502110025 | 32 | 242 | 0.0 | 0.0 | 0.00 | 0.00 | 0.14 | 95 | 1016.1 |
| 20260502104523 | 32 | 242 | 0.0 | 0.0 | 0.00 | 0.00 | 0.13 | 95 | 1015.8 |
| 20260502103014 | 32 | 242 | 0.0 | 0.0 | 0.00 | 0.00 | 0.12 | 95 | 1015.8 |
| 20260502101622 | 32 | 242 | 0.0 | 0.0 | 0.00 | 0.00 | 0.11 | 95 | 1015.7 |
| 20260502101512 | 32 | 242 | 0.0 | 0.0 | 0.00 | 0.00 | 0.11 | 95 | 1015.8 |
| 20260502091527 | 33 | 242 | 0.0 | 0.0 | 0.00 | 0.00 | 0.07 | 95 | 1015.6 |
| 20260502071513 | 35 | 242 | 0.0 | 0.0 | 0.00 | 0.00 | 0.00 | 94 | 1015.5 |
| 20260502070132 | 35 | 242 | 0.0 | 0.0 | 0.00 | 0.00 | 0.00 | 94 | 1015.6 |
| 20260502070005 | 35 | 242 | 0.0 | 0.0 | 0.00 | 0.00 | 0.00 | 94 | 1015.6 |
| 20260502064555 | 36 | 242 | 0.0 | 0.0 | 0.00 | 0.00 | 0.00 | 94 | 1015.8 |
| 20260502063040 | 36 | 242 | 0.0 | 0.0 | 0.00 | 0.00 | 0.00 | 94 | 1015.8 |
| 20260502061528 | 37 | 242 | 1.0 | 0.0 | 0.00 | 0.00 | 0.00 | 94 | 1015.7 |
| 20260502060016 | 37 | 242 | 1.0 | 0.0 | 0.00 | 0.00 | 0.00 | 95 | 1015.7 |
| 20260502054506 | 37 | 210 | 1.0 | 0.0 | 0.00 | 0.00 | 0.00 | 95 | 1015.9 |
| 20260502053054 | 37 | 207 | 0.0 | 0.0 | 0.00 | 0.00 | 0.00 | 94 | 1015.7 |
| 20260502051600 | 37 | 113 | 0.0 | 0.0 | 0.00 | 0.00 | 0.00 | 94 | 1015.7 |
| 20260502050030 | 38 | 113 | 0.0 | 0.0 | 0.00 | 0.00 | 0.00 | 94 | 1015.7 |
| 20260502044519 | 38 | 113 | 0.0 | 0.0 | 0.00 | 0.00 | 0.00 | 94 | 1015.6 |
| 20260502043008 | 38 | 113 | 0.0 | 0.0 | 0.00 | 0.00 | 0.00 | 94 | 1015.6 |
| 20260502041551 | 39 | 113 | 0.0 | 0.0 | 0.00 | 0.00 | 0.00 | 94 | 1015.6 |
| 20260502040052 | 39 | 113 | 0.0 | 0.0 | 0.00 | 0.00 | 0.00 | 94 | 1015.5 |
| 20260502034529 | 39 | 84 | 0.0 | 0.0 | 0.00 | 0.00 | 0.10 | 94 | 1015.6 |
| 20260502033020 | 38 | 57 | 0.0 | 0.0 | 0.00 | 0.00 | 0.10 | 93 | 1015.8 |
| 20260502031508 | 39 | 57 | 0.0 | 0.0 | 0.00 | 0.00 | 0.10 | 93 | 1015.7 |
| 20260502030058 | 39 | 58 | 0.0 | 0.0 | 0.00 | 0.00 | 0.10 | 93 | 1015.7 |
| 20260502024513 | 40 | 57 | 0.0 | 0.0 | 0.00 | 0.00 | 0.10 | 93 | 1015.6 |
| 20260502023123 | 41 | 58 | 0.0 | 0.0 | 0.00 | 0.00 | 0.10 | 93 | 1015.3 |
| 20260502021551 | 41 | 57 | 0.0 | 0.0 | 0.00 | 0.00 | 0.10 | 93 | 1015.4 |
| 20260502014532 | 41 | 58 | 0.0 | 0.0 | 0.00 | 0.00 | 0.10 | 92 | 1015.2 |
| 20260502013025 | 41 | 57 | 0.0 | 0.0 | 0.00 | 0.00 | 0.10 | 92 | 1014.9 |
| 20260502011522 | 41 | 58 | 0.0 | 0.0 | 0.00 | 0.00 | 0.10 | 92 | 1014.7 |
| 20260502010014 | 41 | 57 | 0.0 | 0.0 | 0.00 | 0.00 | 0.09 | 91 | 1014.7 |
| 20260502004624 | 42 | 60 | 0.0 | 0.0 | 0.00 | 0.00 | 0.09 | 90 | 1014.5 |
| 20260502004505 | 42 | 60 | 0.0 | 0.0 | 0.00 | 0.00 | 0.09 | 89 | 1014.5 |
| 20260502003054 | 42 | 60 | 0.0 | 0.0 | 0.00 | 0.00 | 0.09 | 88 | 1014.6 |
| 20260502001603 | 42 | 60 | 0.0 | 0.0 | 0.00 | 0.00 | 0.09 | 86 | 1014.4 |
| 20260502000038 | 43 | 291 | 3.0 | 0.0 | 0.00 | 0.00 | 0.08 | 81 | 1014.4 |
| 20260501234530 | 44 | 37 | 2.0 | 0.0 | 0.00 | 0.00 | 0.07 | 82 | 1013.8 |
| 20260501233022 | 44 | 292 | 2.0 | 0.0 | 0.00 | 0.00 | 0.07 | 82 | 1013.6 |
| 20260501231521 | 45 | 349 | 1.0 | 0.0 | 0.00 | 0.00 | 0.07 | 82 | 1013.5 |
| 20260501230011 | 45 | 360 | 2.0 | 0.0 | 0.00 | 0.00 | 0.07 | 82 | 1013.4 |
| 20260501224558 | 45 | 51 | 2.0 | 0.0 | 0.00 | 0.00 | 0.07 | 82 | 1013.4 |
| 20260501224501 | 45 | 346 | 2.0 | 0.0 | 0.00 | 0.00 | 0.07 | 81 | 1013.4 |
| 20260501223050 | 45 | 22 | 3.0 | 0.0 | 0.00 | 0.00 | 0.07 | 80 | 1013.5 |
| 20260501221533 | 45 | 290 | 1.0 | 0.0 | 0.00 | 0.00 | 0.07 | 82 | 1013.5 |
| 20260501220100 | 46 | 53 | 3.0 | 0.0 | 0.00 | 0.00 | 0.07 | 79 | 1013.5 |
| 20260501214536 | 48 | 214 | 3.0 | 0.0 | 0.00 | 0.00 | 0.07 | 78 | 1013.2 |
| 20260501213025 | 48 | 261 | 2.0 | 0.0 | 0.00 | 0.00 | 0.07 | 79 | 1013.0 |
| 20260501211520 | 47 | 309 | 3.0 | 0.0 | 0.00 | 0.00 | 0.07 | 84 | 1012.9 |
| 20260501210015 | 45 | 284 | 3.0 | 0.0 | 0.00 | 0.00 | 0.07 | 84 | 1013.2 |
| 20260501204558 | 45 | 94 | 2.0 | 0.0 | 0.00 | 0.00 | 0.07 | 83 | 1012.9 |
| 20260501203045 | 44 | 261 | 3.0 | 0.0 | 0.00 | 0.00 | 0.07 | 85 | 1012.7 |
| 20260501201545 | 44 | 269 | 3.0 | 0.0 | 0.00 | 0.00 | 0.07 | 85 | 1012.7 |
| 20260501200035 | 44 | 277 | 3.0 | 0.0 | 0.00 | 0.00 | 0.07 | 86 | 1012.6 |
| 20260501194535 | 44 | 168 | 3.0 | 0.0 | 0.00 | 0.00 | 0.07 | 90 | 1012.4 |
| 20260501193023 | 43 | 21 | 3.0 | 0.0 | 0.00 | 0.00 | 0.07 | 89 | 1012.3 |
| 20260501191512 | 43 | 273 | 3.0 | 0.0 | 0.00 | 0.00 | 0.07 | 90 | 1012.3 |
| 20260501190115 | 43 | 254 | 2.0 | 0.0 | 0.00 | 0.00 | 0.07 | 89 | 1012.1 |
| 20260501190002 | 43 | 302 | 2.0 | 0.0 | 0.00 | 0.00 | 0.07 | 89 | 1012.1 |
| 20260501184545 | 44 | 312 | 3.0 | 0.0 | 0.00 | 0.00 | 0.07 | 88 | 1011.9 |
| 20260501183037 | 45 | 323 | 3.0 | 0.0 | 0.00 | 0.00 | 0.07 | 89 | 1011.5 |
| 20260501181536 | 44 | 330 | 4.0 | 0.0 | 0.00 | 0.00 | 0.07 | 90 | 1011.1 |
| 20260501180013 | 46 | 270 | 4.0 | 0.0 | 0.00 | 0.00 | 0.07 | 87 | 1010.6 |
| 20260501174601 | 48 | 208 | 2.0 | 0.0 | 0.00 | 0.00 | 0.06 | 89 | 1010.1 |
| 20260501174504 | 48 | 242 | 2.0 | 0.0 | 0.00 | 0.00 | 0.06 | 89 | 1010.1 |
| 20260501173105 | 48 | 226 | 3.0 | 0.0 | 0.00 | 0.00 | 0.06 | 88 | 1010.1 |
| 20260501171547 | 48 | 244 | 5.0 | 0.0 | 0.00 | 0.00 | 0.06 | 87 | 1010.1 |
| 20260501170048 | 48 | 216 | 4.0 | 0.0 | 0.00 | 0.00 | 0.06 | 89 | 1010.0 |
| 20260501164540 | 47 | 213 | 3.0 | 0.0 | 0.00 | 0.00 | 0.06 | 88 | 1010.3 |
| 20260501163036 | 47 | 210 | 3.0 | 0.0 | 0.00 | 0.00 | 0.06 | 87 | 1010.3 |
| 20260501161507 | 47 | 206 | 3.0 | 0.0 | 0.00 | 0.00 | 0.06 | 87 | 1010.4 |
| 20260501160136 | 47 | 205 | 3.0 | 0.0 | 0.00 | 0.00 | 0.06 | 86 | 1010.4 |
| 20260501154600 | 47 | 179 | 1.0 | 0.0 | 0.00 | 0.00 | 0.06 | 87 | 1010.3 |
| 20260501153040 | 47 | 184 | 1.0 | 0.0 | 0.00 | 0.00 | 0.06 | 89 | 1010.4 |
| 20260501151530 | 46 | 184 | 1.0 | 0.0 | 0.00 | 0.00 | 0.06 | 90 | 1010.5 |
| 20260501150018 | 45 | 184 | 0.0 | 0.0 | 0.00 | 0.00 | 0.06 | 91 | 1010.7 |